Year,Month,Day,Hour,Minute,Value (Times are PST for temperature in C)
2018,07,23,00,00,20.30
2018,07,23,00,01,20.20
2018,07,23,00,02,20.20
2018,07,23,00,03,20.20
2018,07,23,00,04,20.20
2018,07,23,00,05,20.10
2018,07,23,00,06,20.10
2018,07,23,00,07,20.10
2018,07,23,00,08,20.00
2018,07,23,00,09,20.00
2018,07,23,00,10,20.00
2018,07,23,00,11,19.90
2018,07,23,00,12,19.90
2018,07,23,00,13,19.90
2018,07,23,00,14,19.90
2018,07,23,00,15,19.80
2018,07,23,00,16,19.80
2018,07,23,00,17,19.80
2018,07,23,00,18,19.80
2018,07,23,00,19,19.80
2018,07,23,00,20,19.80
2018,07,23,00,21,19.80
2018,07,23,00,22,19.80
2018,07,23,00,23,19.80
2018,07,23,00,24,19.70
2018,07,23,00,25,19.70
2018,07,23,00,26,19.70
2018,07,23,00,27,19.70
2018,07,23,00,28,19.70
2018,07,23,00,29,19.60
2018,07,23,00,30,19.60
2018,07,23,00,31,19.60
2018,07,23,00,32,19.60
2018,07,23,00,33,19.60
2018,07,23,00,34,19.50
2018,07,23,00,35,19.50
2018,07,23,00,36,19.50
2018,07,23,00,37,19.40
2018,07,23,00,38,19.40
2018,07,23,00,39,19.40
2018,07,23,00,40,19.30
2018,07,23,00,41,19.30
2018,07,23,00,42,19.30
2018,07,23,00,43,19.20
2018,07,23,00,44,19.20
2018,07,23,00,45,19.20
2018,07,23,00,46,19.20
2018,07,23,00,47,19.20
2018,07,23,00,48,19.20
2018,07,23,00,49,19.20
2018,07,23,00,50,19.10
2018,07,23,00,51,19.10
2018,07,23,00,52,19.10
2018,07,23,00,53,19.10
2018,07,23,00,54,19.10
2018,07,23,00,55,19.00
2018,07,23,00,56,19.00
2018,07,23,00,57,19.00
2018,07,23,00,58,18.90
2018,07,23,00,59,18.90
2018,07,23,01,00,18.90
2018,07,23,01,01,18.90
2018,07,23,01,02,18.80
2018,07,23,01,03,18.80
2018,07,23,01,04,18.80
2018,07,23,01,05,18.80
2018,07,23,01,06,18.80
2018,07,23,01,07,18.80
2018,07,23,01,08,18.80
2018,07,23,01,09,18.80
2018,07,23,01,10,18.70
2018,07,23,01,11,18.70
2018,07,23,01,12,18.70
2018,07,23,01,13,18.70
2018,07,23,01,14,18.70
2018,07,23,01,15,18.70
2018,07,23,01,16,18.70
2018,07,23,01,17,18.70
2018,07,23,01,18,18.70
2018,07,23,01,19,18.70
2018,07,23,01,20,18.70
2018,07,23,01,21,18.70
2018,07,23,01,22,18.60
2018,07,23,01,23,18.60
2018,07,23,01,24,18.60
2018,07,23,01,25,18.60
2018,07,23,01,26,18.60
2018,07,23,01,27,18.60
2018,07,23,01,28,18.60
2018,07,23,01,29,18.60
2018,07,23,01,30,18.60
2018,07,23,01,31,18.50
2018,07,23,01,32,18.50
2018,07,23,01,33,18.50
2018,07,23,01,34,18.50
2018,07,23,01,35,18.50
2018,07,23,01,36,18.40
2018,07,23,01,37,18.40
2018,07,23,01,38,18.40
2018,07,23,01,39,18.40
2018,07,23,01,40,18.40
2018,07,23,01,41,18.40
2018,07,23,01,42,18.40
2018,07,23,01,43,18.30
2018,07,23,01,44,18.30
2018,07,23,01,45,18.30
2018,07,23,01,46,18.30
2018,07,23,01,47,18.30
2018,07,23,01,48,18.30
2018,07,23,01,49,18.30
2018,07,23,01,50,18.20
2018,07,23,01,51,18.20
2018,07,23,01,52,18.20
2018,07,23,01,53,18.20
2018,07,23,01,54,18.20
2018,07,23,01,55,18.20
2018,07,23,01,56,18.20
2018,07,23,01,57,18.20
2018,07,23,01,58,18.20
2018,07,23,01,59,18.20
2018,07,23,02,00,18.10
2018,07,23,02,01,18.10
2018,07,23,02,02,18.10
2018,07,23,02,03,18.10
2018,07,23,02,04,18.10
2018,07,23,02,05,18.10
2018,07,23,02,06,18.10
2018,07,23,02,07,18.10
2018,07,23,02,08,18.10
2018,07,23,02,09,18.10
2018,07,23,02,10,18.00
2018,07,23,02,11,18.00
2018,07,23,02,12,18.00
2018,07,23,02,13,18.00
2018,07,23,02,14,18.00
2018,07,23,02,15,18.00
2018,07,23,02,16,17.90
2018,07,23,02,17,17.90
2018,07,23,02,18,17.90
2018,07,23,02,19,17.90
2018,07,23,02,20,17.90
2018,07,23,02,21,17.90
2018,07,23,02,22,17.90
2018,07,23,02,23,17.90
2018,07,23,02,24,17.90
2018,07,23,02,25,17.90
2018,07,23,02,26,17.90
2018,07,23,02,27,17.90
2018,07,23,02,28,17.80
2018,07,23,02,29,17.80
2018,07,23,02,30,17.80
2018,07,23,02,31,17.80
2018,07,23,02,32,17.80
2018,07,23,02,33,17.80
2018,07,23,02,34,17.80
2018,07,23,02,35,17.80
2018,07,23,02,36,17.80
2018,07,23,02,37,17.80
2018,07,23,02,38,17.80
2018,07,23,02,39,17.80
2018,07,23,02,40,17.80
2018,07,23,02,41,17.80
2018,07,23,02,42,17.80
2018,07,23,02,43,17.80
2018,07,23,02,44,17.80
2018,07,23,02,45,17.80
2018,07,23,02,46,17.80
2018,07,23,02,47,17.80
2018,07,23,02,48,17.80
2018,07,23,02,49,17.80
2018,07,23,02,50,17.80
2018,07,23,02,51,17.80
2018,07,23,02,52,17.80
2018,07,23,02,53,17.80
2018,07,23,02,54,17.80
2018,07,23,02,55,17.80
2018,07,23,02,56,17.80
2018,07,23,02,57,17.80
2018,07,23,02,58,17.80
2018,07,23,02,59,17.80
2018,07,23,03,00,17.80
2018,07,23,03,01,17.80
2018,07,23,03,02,17.80
2018,07,23,03,03,17.80
2018,07,23,03,04,17.80
2018,07,23,03,05,17.80
2018,07,23,03,06,17.70
2018,07,23,03,07,17.70
2018,07,23,03,08,17.70
2018,07,23,03,09,17.70
2018,07,23,03,10,17.70
2018,07,23,03,11,17.70
2018,07,23,03,12,17.70
2018,07,23,03,13,17.70
2018,07,23,03,14,17.60
2018,07,23,03,15,17.60
2018,07,23,03,16,17.60
2018,07,23,03,17,17.50
2018,07,23,03,18,17.50
2018,07,23,03,19,17.40
2018,07,23,03,20,17.40
2018,07,23,03,21,17.30
2018,07,23,03,22,17.20
2018,07,23,03,23,17.20
2018,07,23,03,24,17.10
2018,07,23,03,25,17.00
2018,07,23,03,26,16.90
2018,07,23,03,27,16.90
2018,07,23,03,28,16.80
2018,07,23,03,29,16.80
2018,07,23,03,30,16.70
2018,07,23,03,31,16.70
2018,07,23,03,32,16.60
2018,07,23,03,33,16.60
2018,07,23,03,34,16.60
2018,07,23,03,35,16.50
2018,07,23,03,36,16.50
2018,07,23,03,37,16.50
2018,07,23,03,38,16.40
2018,07,23,03,39,16.40
2018,07,23,03,40,16.40
2018,07,23,03,41,16.30
2018,07,23,03,42,16.30
2018,07,23,03,43,16.30
2018,07,23,03,44,16.30
2018,07,23,03,45,16.20
2018,07,23,03,46,16.20
2018,07,23,03,47,16.20
2018,07,23,03,48,16.20
2018,07,23,03,49,16.10
2018,07,23,03,50,16.10
2018,07,23,03,51,16.10
2018,07,23,03,52,16.10
2018,07,23,03,53,16.00
2018,07,23,03,54,16.00
2018,07,23,03,55,15.90
2018,07,23,03,56,15.90
2018,07,23,03,57,15.80
2018,07,23,03,58,15.80
2018,07,23,03,59,15.80
2018,07,23,04,00,15.80
2018,07,23,04,01,15.80
2018,07,23,04,02,15.80
2018,07,23,04,03,15.70
2018,07,23,04,04,15.70
2018,07,23,04,05,15.70
2018,07,23,04,06,15.70
2018,07,23,04,07,15.70
2018,07,23,04,08,15.70
2018,07,23,04,09,15.70
2018,07,23,04,10,15.70
2018,07,23,04,11,15.60
2018,07,23,04,12,15.60
2018,07,23,04,13,15.60
2018,07,23,04,14,15.60
2018,07,23,04,15,15.60
2018,07,23,04,16,15.60
2018,07,23,04,17,15.60
2018,07,23,04,18,15.60
2018,07,23,04,19,15.60
2018,07,23,04,20,15.60
2018,07,23,04,21,15.60
2018,07,23,04,22,15.60
2018,07,23,04,23,15.60
2018,07,23,04,24,15.60
2018,07,23,04,25,15.60
2018,07,23,04,26,15.60
2018,07,23,04,27,15.60
2018,07,23,04,28,15.60
2018,07,23,04,29,15.60
2018,07,23,04,30,15.70
2018,07,23,04,31,15.60
2018,07,23,04,32,15.60
2018,07,23,04,33,15.60
2018,07,23,04,34,15.60
2018,07,23,04,35,15.60
2018,07,23,04,36,15.60
2018,07,23,04,37,15.60
2018,07,23,04,38,15.60
2018,07,23,04,39,15.60
2018,07,23,04,40,15.60
2018,07,23,04,41,15.50
2018,07,23,04,42,15.50
2018,07,23,04,43,15.50
2018,07,23,04,44,15.50
2018,07,23,04,45,15.40
2018,07,23,04,46,15.40
2018,07,23,04,47,15.40
2018,07,23,04,48,15.40
2018,07,23,04,49,15.40
2018,07,23,04,50,15.30
2018,07,23,04,51,15.30
2018,07,23,04,52,15.30
2018,07,23,04,53,15.30
2018,07,23,04,54,15.30
2018,07,23,04,55,15.30
2018,07,23,04,56,15.30
2018,07,23,04,57,15.30
2018,07,23,04,58,15.20
2018,07,23,04,59,15.20
2018,07,23,05,00,15.20
2018,07,23,05,01,15.20
2018,07,23,05,02,15.20
2018,07,23,05,03,15.20
2018,07,23,05,04,15.20
2018,07,23,05,05,15.20
2018,07,23,05,06,15.20
2018,07,23,05,07,15.20
2018,07,23,05,08,15.20
2018,07,23,05,09,15.20
2018,07,23,05,10,15.20
2018,07,23,05,11,15.20
2018,07,23,05,12,15.20
2018,07,23,05,13,15.20
2018,07,23,05,14,15.10
2018,07,23,05,15,15.20
2018,07,23,05,16,15.10
2018,07,23,05,17,15.10
2018,07,23,05,18,15.10
2018,07,23,05,19,15.10
2018,07,23,05,20,15.10
2018,07,23,05,21,15.10
2018,07,23,05,22,15.10
2018,07,23,05,23,15.10
2018,07,23,05,24,15.10
2018,07,23,05,25,15.10
2018,07,23,05,26,15.20
2018,07,23,05,27,15.20
2018,07,23,05,28,15.20
2018,07,23,05,29,15.20
2018,07,23,05,30,15.20
2018,07,23,05,31,15.20
2018,07,23,05,32,15.20
2018,07,23,05,33,15.20
2018,07,23,05,34,15.20
2018,07,23,05,35,15.20
2018,07,23,05,36,15.20
2018,07,23,05,37,15.20
2018,07,23,05,38,15.20
2018,07,23,05,39,15.20
2018,07,23,05,40,15.20
2018,07,23,05,41,15.20
2018,07,23,05,42,15.20
2018,07,23,05,43,15.20
2018,07,23,05,44,15.20
2018,07,23,05,45,15.20
2018,07,23,05,46,15.20
2018,07,23,05,47,15.20
2018,07,23,05,48,15.20
2018,07,23,05,49,15.20
2018,07,23,05,50,15.20
2018,07,23,05,51,15.20
2018,07,23,05,52,15.20
2018,07,23,05,53,15.20
2018,07,23,05,54,15.20
2018,07,23,05,55,15.20
2018,07,23,05,56,15.20
2018,07,23,05,57,15.20
2018,07,23,05,58,15.10
2018,07,23,05,59,15.10
2018,07,23,06,00,15.10
2018,07,23,06,01,15.10
2018,07,23,06,02,15.10
2018,07,23,06,03,15.10
2018,07,23,06,04,15.10
2018,07,23,06,05,15.10
2018,07,23,06,06,15.00
2018,07,23,06,07,15.10
2018,07,23,06,08,15.10
2018,07,23,06,09,15.10
2018,07,23,06,10,15.10
2018,07,23,06,11,15.10
2018,07,23,06,12,15.10
2018,07,23,06,13,15.00
2018,07,23,06,14,15.10
2018,07,23,06,15,15.10
2018,07,23,06,16,15.10
2018,07,23,06,17,15.10
2018,07,23,06,18,15.10
2018,07,23,06,19,15.10
2018,07,23,06,20,15.10
2018,07,23,06,21,15.10
2018,07,23,06,22,15.10
2018,07,23,06,23,15.10
2018,07,23,06,24,15.10
2018,07,23,06,25,15.10
2018,07,23,06,26,15.10
2018,07,23,06,27,15.10
2018,07,23,06,28,15.10
2018,07,23,06,29,15.10
2018,07,23,06,30,15.10
2018,07,23,06,31,15.10
2018,07,23,06,32,15.10
2018,07,23,06,33,15.20
2018,07,23,06,34,15.20
2018,07,23,06,35,15.20
2018,07,23,06,36,15.20
2018,07,23,06,37,15.20
2018,07,23,06,38,15.20
2018,07,23,06,39,15.20
2018,07,23,06,40,15.30
2018,07,23,06,41,15.30
2018,07,23,06,42,15.30
2018,07,23,06,43,15.30
2018,07,23,06,44,15.30
2018,07,23,06,45,15.40
2018,07,23,06,46,15.40
2018,07,23,06,47,15.40
2018,07,23,06,48,15.50
2018,07,23,06,49,15.50
2018,07,23,06,50,15.50
2018,07,23,06,51,15.60
2018,07,23,06,52,15.60
2018,07,23,06,53,15.60
2018,07,23,06,54,15.70
2018,07,23,06,55,15.70
2018,07,23,06,56,15.70
2018,07,23,06,57,15.80
2018,07,23,06,58,15.80
2018,07,23,06,59,15.90
2018,07,23,07,00,15.90
2018,07,23,07,01,15.90
2018,07,23,07,02,16.00
2018,07,23,07,03,16.00
2018,07,23,07,04,16.10
2018,07,23,07,05,16.10
2018,07,23,07,06,16.20
2018,07,23,07,07,16.30
2018,07,23,07,08,16.30
2018,07,23,07,09,16.40
2018,07,23,07,10,16.50
2018,07,23,07,11,16.50
2018,07,23,07,12,16.60
2018,07,23,07,13,16.70
2018,07,23,07,14,16.80
2018,07,23,07,15,16.90
2018,07,23,07,16,17.00
2018,07,23,07,17,17.00
2018,07,23,07,18,17.10
2018,07,23,07,19,17.20
2018,07,23,07,20,17.30
2018,07,23,07,21,17.30
2018,07,23,07,22,17.40
2018,07,23,07,23,17.50
2018,07,23,07,24,17.50
2018,07,23,07,25,17.60
2018,07,23,07,26,17.70
2018,07,23,07,27,17.80
2018,07,23,07,28,17.90
2018,07,23,07,29,18.00
2018,07,23,07,30,18.00
2018,07,23,07,31,18.10
2018,07,23,07,32,18.20
2018,07,23,07,33,18.30
2018,07,23,07,34,18.40
2018,07,23,07,35,18.50
2018,07,23,07,36,18.50
2018,07,23,07,37,18.60
2018,07,23,07,38,18.70
2018,07,23,07,39,18.70
2018,07,23,07,40,18.80
2018,07,23,07,41,18.90
2018,07,23,07,42,18.90
2018,07,23,07,43,19.00
2018,07,23,07,44,19.00
2018,07,23,07,45,19.10
2018,07,23,07,46,19.10
2018,07,23,07,47,19.20
2018,07,23,07,48,19.20
2018,07,23,07,49,19.30
2018,07,23,07,50,19.30
2018,07,23,07,51,19.30
2018,07,23,07,52,19.40
2018,07,23,07,53,19.40
2018,07,23,07,54,19.50
2018,07,23,07,55,19.50
2018,07,23,07,56,19.60
2018,07,23,07,57,19.60
2018,07,23,07,58,19.60
2018,07,23,07,59,19.70
2018,07,23,08,00,19.70
2018,07,23,08,01,19.70
2018,07,23,08,02,19.80
2018,07,23,08,03,19.80
2018,07,23,08,04,19.80
2018,07,23,08,05,19.90
2018,07,23,08,06,19.90
2018,07,23,08,07,20.00
2018,07,23,08,08,20.00
2018,07,23,08,09,20.10
2018,07,23,08,10,20.10
2018,07,23,08,11,20.20
2018,07,23,08,12,20.20
2018,07,23,08,13,20.30
2018,07,23,08,14,20.30
2018,07,23,08,15,20.40
2018,07,23,08,16,20.50
2018,07,23,08,17,20.60
2018,07,23,08,18,20.60
2018,07,23,08,19,20.70
2018,07,23,08,20,20.80
2018,07,23,08,21,20.80
2018,07,23,08,22,20.80
2018,07,23,08,23,20.90
2018,07,23,08,24,20.90
2018,07,23,08,25,21.00
2018,07,23,08,26,21.00
2018,07,23,08,27,21.10
2018,07,23,08,28,21.10
2018,07,23,08,29,21.20
2018,07,23,08,30,21.20
2018,07,23,08,31,21.20
2018,07,23,08,32,21.30
2018,07,23,08,33,21.30
2018,07,23,08,34,21.30
2018,07,23,08,35,21.40
2018,07,23,08,36,21.40
2018,07,23,08,37,21.50
2018,07,23,08,38,21.50
2018,07,23,08,39,21.50
2018,07,23,08,40,21.60
2018,07,23,08,41,21.60
2018,07,23,08,42,21.70
2018,07,23,08,43,21.70
2018,07,23,08,44,21.80
2018,07,23,08,45,21.80
2018,07,23,08,46,21.90
2018,07,23,08,47,22.00
2018,07,23,08,48,22.00
2018,07,23,08,49,22.10
2018,07,23,08,50,22.10
2018,07,23,08,51,22.20
2018,07,23,08,52,22.30
2018,07,23,08,53,22.30
2018,07,23,08,54,22.40
2018,07,23,08,55,22.50
2018,07,23,08,56,22.50
2018,07,23,08,57,22.60
2018,07,23,08,58,22.60
2018,07,23,08,59,22.70
2018,07,23,09,00,22.70
2018,07,23,09,01,22.80
2018,07,23,09,02,22.90
2018,07,23,09,03,22.90
2018,07,23,09,04,23.00
2018,07,23,09,05,23.10
2018,07,23,09,06,23.20
2018,07,23,09,07,23.20
2018,07,23,09,08,23.30
2018,07,23,09,09,23.30
2018,07,23,09,10,23.30
2018,07,23,09,11,23.30
2018,07,23,09,12,23.30
2018,07,23,09,13,23.30
2018,07,23,09,14,23.30
2018,07,23,09,15,23.30
2018,07,23,09,16,23.20
2018,07,23,09,17,23.20
2018,07,23,09,18,23.10
2018,07,23,09,19,23.00
2018,07,23,09,20,23.00
2018,07,23,09,21,22.90
2018,07,23,09,22,22.80
2018,07,23,09,23,22.80
2018,07,23,09,24,22.60
2018,07,23,09,25,22.50
2018,07,23,09,26,22.40
2018,07,23,09,27,22.30
2018,07,23,09,28,22.30
2018,07,23,09,29,22.20
2018,07,23,09,30,22.20
2018,07,23,09,31,22.10
2018,07,23,09,32,22.10
2018,07,23,09,33,22.00
2018,07,23,09,34,21.90
2018,07,23,09,35,21.90
2018,07,23,09,36,21.90
2018,07,23,09,37,21.80
2018,07,23,09,38,21.80
2018,07,23,09,39,21.80
2018,07,23,09,40,21.70
2018,07,23,09,41,21.70
2018,07,23,09,42,21.70
2018,07,23,09,43,21.70
2018,07,23,09,44,21.70
2018,07,23,09,45,21.70
2018,07,23,09,46,21.80
2018,07,23,09,47,21.80
2018,07,23,09,48,21.80
2018,07,23,09,49,21.80
2018,07,23,09,50,21.80
2018,07,23,09,51,21.80
2018,07,23,09,52,21.80
2018,07,23,09,53,21.80
2018,07,23,09,54,21.80
2018,07,23,09,55,21.80
2018,07,23,09,56,21.80
2018,07,23,09,57,21.80
2018,07,23,09,58,21.90
2018,07,23,09,59,21.90
2018,07,23,10,00,21.90
2018,07,23,10,01,22.00
2018,07,23,10,02,22.00
2018,07,23,10,03,22.10
2018,07,23,10,04,22.20
2018,07,23,10,05,22.20
2018,07,23,10,06,22.30
2018,07,23,10,07,22.30
2018,07,23,10,08,22.40
2018,07,23,10,09,22.40
2018,07,23,10,10,22.50
2018,07,23,10,11,22.50
2018,07,23,10,12,22.60
2018,07,23,10,13,22.60
2018,07,23,10,14,22.60
2018,07,23,10,15,22.60
2018,07,23,10,16,22.50
2018,07,23,10,17,22.50
2018,07,23,10,18,22.50
2018,07,23,10,19,22.50
2018,07,23,10,20,22.50
2018,07,23,10,21,22.50
2018,07,23,10,22,22.50
2018,07,23,10,23,22.60
2018,07,23,10,24,22.60
2018,07,23,10,25,22.70
2018,07,23,10,26,22.70
2018,07,23,10,27,22.80
2018,07,23,10,28,22.90
2018,07,23,10,29,22.90
2018,07,23,10,30,23.00
2018,07,23,10,31,22.90
2018,07,23,10,32,22.90
2018,07,23,10,33,22.90
2018,07,23,10,34,22.80
2018,07,23,10,35,22.80
2018,07,23,10,36,22.80
2018,07,23,10,37,22.80
2018,07,23,10,38,22.80
2018,07,23,10,39,22.80
2018,07,23,10,40,22.80
2018,07,23,10,41,22.70
2018,07,23,10,42,22.80
2018,07,23,10,43,22.80
2018,07,23,10,44,22.80
2018,07,23,10,45,22.80
2018,07,23,10,46,22.80
2018,07,23,10,47,22.80
2018,07,23,10,48,22.80
2018,07,23,10,49,22.90
2018,07,23,10,50,23.00
2018,07,23,10,51,23.00
2018,07,23,10,52,23.10
2018,07,23,10,53,23.20
2018,07,23,10,54,23.30
2018,07,23,10,55,23.30
2018,07,23,10,56,23.40
2018,07,23,10,57,23.50
2018,07,23,10,58,23.60
2018,07,23,10,59,23.70
2018,07,23,11,00,23.80
2018,07,23,11,01,23.80
2018,07,23,11,02,23.90
2018,07,23,11,03,23.90
2018,07,23,11,04,23.90
2018,07,23,11,05,23.90
2018,07,23,11,06,23.90
2018,07,23,11,07,23.90
2018,07,23,11,08,23.90
2018,07,23,11,09,23.90
2018,07,23,11,10,23.90
2018,07,23,11,11,23.80
2018,07,23,11,12,23.80
2018,07,23,11,13,23.80
2018,07,23,11,14,23.80
2018,07,23,11,15,23.80
2018,07,23,11,16,23.80
2018,07,23,11,17,23.90
2018,07,23,11,18,23.90
2018,07,23,11,19,24.00
2018,07,23,11,20,24.00
2018,07,23,11,21,24.10
2018,07,23,11,22,24.10
2018,07,23,11,23,24.10
2018,07,23,11,24,24.00
2018,07,23,11,25,24.00
2018,07,23,11,26,23.90
2018,07,23,11,27,23.90
2018,07,23,11,28,23.80
2018,07,23,11,29,23.80
2018,07,23,11,30,23.80
2018,07,23,11,31,23.80
2018,07,23,11,32,23.90
2018,07,23,11,33,24.00
2018,07,23,11,34,24.10
2018,07,23,11,35,24.10
2018,07,23,11,36,24.20
2018,07,23,11,37,24.30
2018,07,23,11,38,24.40
2018,07,23,11,39,24.50
2018,07,23,11,40,24.50
2018,07,23,11,41,24.70
2018,07,23,11,42,24.80
2018,07,23,11,43,25.00
2018,07,23,11,44,25.10
2018,07,23,11,45,25.20
2018,07,23,11,46,25.30
2018,07,23,11,47,25.40
2018,07,23,11,48,25.50
2018,07,23,11,49,25.60
2018,07,23,11,50,25.70
2018,07,23,11,51,25.70
2018,07,23,11,52,25.80
2018,07,23,11,53,25.90
2018,07,23,11,54,25.90
2018,07,23,11,55,26.00
2018,07,23,11,56,26.10
2018,07,23,11,57,26.10
2018,07,23,11,58,26.10
2018,07,23,11,59,26.10
2018,07,23,12,00,26.20
2018,07,23,12,01,26.20
2018,07,23,12,02,26.30
2018,07,23,12,03,26.30
2018,07,23,12,04,26.40
2018,07,23,12,05,26.50
2018,07,23,12,06,26.50
2018,07,23,12,07,26.60
2018,07,23,12,08,26.60
2018,07,23,12,09,26.60
2018,07,23,12,10,26.60
2018,07,23,12,11,26.70
2018,07,23,12,12,26.70
2018,07,23,12,13,26.80
2018,07,23,12,14,26.80
2018,07,23,12,15,26.90
2018,07,23,12,16,26.90
2018,07,23,12,17,27.00
2018,07,23,12,18,27.10
2018,07,23,12,19,27.10
2018,07,23,12,20,27.20
2018,07,23,12,21,27.20
2018,07,23,12,22,27.20
2018,07,23,12,23,27.20
2018,07,23,12,24,27.10
2018,07,23,12,25,27.00
2018,07,23,12,26,27.00
2018,07,23,12,27,27.00
2018,07,23,12,28,26.90
2018,07,23,12,29,26.90
2018,07,23,12,30,26.80
2018,07,23,12,31,26.80
2018,07,23,12,32,26.80
2018,07,23,12,33,26.80
2018,07,23,12,34,26.70
2018,07,23,12,35,26.70
2018,07,23,12,36,26.70
2018,07,23,12,37,26.80
2018,07,23,12,38,26.80
2018,07,23,12,39,26.80
2018,07,23,12,40,26.90
2018,07,23,12,41,26.90
2018,07,23,12,42,26.80
2018,07,23,12,43,26.70
2018,07,23,12,44,26.70
2018,07,23,12,45,26.60
2018,07,23,12,46,26.50
2018,07,23,12,47,26.50
2018,07,23,12,48,26.50
2018,07,23,12,49,26.50
2018,07,23,12,50,26.50
2018,07,23,12,51,26.40
2018,07,23,12,52,26.40
2018,07,23,12,53,26.50
2018,07,23,12,54,26.50
2018,07,23,12,55,26.70
2018,07,23,12,56,26.70
2018,07,23,12,57,26.80
2018,07,23,12,58,26.90
2018,07,23,12,59,26.90
2018,07,23,13,00,26.90
2018,07,23,13,01,26.90
2018,07,23,13,02,26.90
2018,07,23,13,03,26.90
2018,07,23,13,04,27.00
2018,07,23,13,05,27.00
2018,07,23,13,06,27.00
2018,07,23,13,07,27.10
2018,07,23,13,08,27.20
2018,07,23,13,09,27.20
2018,07,23,13,10,27.20
2018,07,23,13,11,27.20
2018,07,23,13,12,27.20
2018,07,23,13,13,27.30
2018,07,23,13,14,27.30
2018,07,23,13,15,27.40
2018,07,23,13,16,27.50
2018,07,23,13,17,27.60
2018,07,23,13,18,27.70
2018,07,23,13,19,27.70
2018,07,23,13,20,27.70
2018,07,23,13,21,27.70
2018,07,23,13,22,27.60
2018,07,23,13,23,27.50
2018,07,23,13,24,27.40
2018,07,23,13,25,27.40
2018,07,23,13,26,27.30
2018,07,23,13,27,27.30
2018,07,23,13,28,27.30
2018,07,23,13,29,27.30
2018,07,23,13,30,27.30
2018,07,23,13,31,27.40
2018,07,23,13,32,27.50
2018,07,23,13,33,27.50
2018,07,23,13,34,27.60
2018,07,23,13,35,27.70
2018,07,23,13,36,27.70
2018,07,23,13,37,27.70
2018,07,23,13,38,27.70
2018,07,23,13,39,27.70
2018,07,23,13,40,27.70
2018,07,23,13,41,27.80
2018,07,23,13,42,27.80
2018,07,23,13,43,27.80
2018,07,23,13,44,27.80
2018,07,23,13,45,27.90
2018,07,23,13,46,27.90
2018,07,23,13,47,28.00
2018,07,23,13,48,28.00
2018,07,23,13,49,28.00
2018,07,23,13,50,28.00
2018,07,23,13,51,28.00
2018,07,23,13,52,28.10
2018,07,23,13,53,28.10
2018,07,23,13,54,28.10
2018,07,23,13,55,28.10
2018,07,23,13,56,28.10
2018,07,23,13,57,28.10
2018,07,23,13,58,28.00
2018,07,23,13,59,28.00
2018,07,23,14,00,28.00
2018,07,23,14,01,28.10
2018,07,23,14,02,28.10
2018,07,23,14,03,28.00
2018,07,23,14,04,28.00
2018,07,23,14,05,28.00
2018,07,23,14,06,27.90
2018,07,23,14,07,27.80
2018,07,23,14,08,27.80
2018,07,23,14,09,27.70
2018,07,23,14,10,27.60
2018,07,23,14,11,27.60
2018,07,23,14,12,27.50
2018,07,23,14,13,27.50
2018,07,23,14,14,27.40
2018,07,23,14,15,27.40
2018,07,23,14,16,27.40
2018,07,23,14,17,27.40
2018,07,23,14,18,27.30
2018,07,23,14,19,27.30
2018,07,23,14,20,27.20
2018,07,23,14,21,27.20
2018,07,23,14,22,27.10
2018,07,23,14,23,27.10
2018,07,23,14,24,27.00
2018,07,23,14,25,27.00
2018,07,23,14,26,27.00
2018,07,23,14,27,27.00
2018,07,23,14,28,27.00
2018,07,23,14,29,27.10
2018,07,23,14,30,27.10
2018,07,23,14,31,27.10
2018,07,23,14,32,27.20
2018,07,23,14,33,27.20
2018,07,23,14,34,27.20
2018,07,23,14,35,27.20
2018,07,23,14,36,27.30
2018,07,23,14,37,27.30
2018,07,23,14,38,27.30
2018,07,23,14,39,27.30
2018,07,23,14,40,27.30
2018,07,23,14,41,27.30
2018,07,23,14,42,27.30
2018,07,23,14,43,27.40
2018,07,23,14,44,27.40
2018,07,23,14,45,27.50
2018,07,23,14,46,27.60
2018,07,23,14,47,27.70
2018,07,23,14,48,27.70
2018,07,23,14,49,27.80
2018,07,23,14,50,27.80
2018,07,23,14,51,27.80
2018,07,23,14,52,27.70
2018,07,23,14,53,27.70
2018,07,23,14,54,27.70
2018,07,23,14,55,27.60
2018,07,23,14,56,27.60
2018,07,23,14,57,27.70
2018,07,23,14,58,27.70
2018,07,23,14,59,27.70
2018,07,23,15,00,27.60
2018,07,23,15,01,27.60
2018,07,23,15,02,27.60
2018,07,23,15,03,27.60
2018,07,23,15,04,27.60
2018,07,23,15,05,27.50
2018,07,23,15,06,27.50
2018,07,23,15,07,27.40
2018,07,23,15,08,27.40
2018,07,23,15,09,27.30
2018,07,23,15,10,27.30
2018,07,23,15,11,27.30
2018,07,23,15,12,27.30
2018,07,23,15,13,27.40
2018,07,23,15,14,27.40
2018,07,23,15,15,27.50
2018,07,23,15,16,27.50
2018,07,23,15,17,27.60
2018,07,23,15,18,27.60
2018,07,23,15,19,27.60
2018,07,23,15,20,27.70
2018,07,23,15,21,27.70
2018,07,23,15,22,27.70
2018,07,23,15,23,27.70
2018,07,23,15,24,27.80
2018,07,23,15,25,27.80
2018,07,23,15,26,27.80
2018,07,23,15,27,27.80
2018,07,23,15,28,27.80
2018,07,23,15,29,27.80
2018,07,23,15,30,27.80
2018,07,23,15,31,27.90
2018,07,23,15,32,27.90
2018,07,23,15,33,27.90
2018,07,23,15,34,28.00
2018,07,23,15,35,28.00
2018,07,23,15,36,28.10
2018,07,23,15,37,28.10
2018,07,23,15,38,28.10
2018,07,23,15,39,28.10
2018,07,23,15,40,28.10
2018,07,23,15,41,28.10
2018,07,23,15,42,28.20
2018,07,23,15,43,28.20
2018,07,23,15,44,28.20
2018,07,23,15,45,28.30
2018,07,23,15,46,28.30
2018,07,23,15,47,28.30
2018,07,23,15,48,28.30
2018,07,23,15,49,28.30
2018,07,23,15,50,28.30
2018,07,23,15,51,28.40
2018,07,23,15,52,28.40
2018,07,23,15,53,28.40
2018,07,23,15,54,28.50
2018,07,23,15,55,28.50
2018,07,23,15,56,28.50
2018,07,23,15,57,28.60
2018,07,23,15,58,28.60
2018,07,23,15,59,28.60
2018,07,23,16,00,28.60
2018,07,23,16,01,28.70
2018,07,23,16,02,28.70
2018,07,23,16,03,28.70
2018,07,23,16,04,28.70
2018,07,23,16,05,28.70
2018,07,23,16,06,28.70
2018,07,23,16,07,28.70
2018,07,23,16,08,28.70
2018,07,23,16,09,28.70
2018,07,23,16,10,28.60
2018,07,23,16,11,28.60
2018,07,23,16,12,28.60
2018,07,23,16,13,28.60
2018,07,23,16,14,28.60
2018,07,23,16,15,28.70
2018,07,23,16,16,28.70
2018,07,23,16,17,28.70
2018,07,23,16,18,28.70
2018,07,23,16,19,28.70
2018,07,23,16,20,28.70
2018,07,23,16,21,28.70
2018,07,23,16,22,28.70
2018,07,23,16,23,28.70
2018,07,23,16,24,28.70
2018,07,23,16,25,28.70
2018,07,23,16,26,28.70
2018,07,23,16,27,28.60
2018,07,23,16,28,28.60
2018,07,23,16,29,28.60
2018,07,23,16,30,28.60
2018,07,23,16,31,28.60
2018,07,23,16,32,28.60
2018,07,23,16,33,28.60
2018,07,23,16,34,28.70
2018,07,23,16,35,28.70
2018,07,23,16,36,28.70
2018,07,23,16,37,28.70
2018,07,23,16,38,28.80
2018,07,23,16,39,28.80
2018,07,23,16,40,28.80
2018,07,23,16,41,28.90
2018,07,23,16,42,28.90
2018,07,23,16,43,28.90
2018,07,23,16,44,28.90
2018,07,23,16,45,28.90
2018,07,23,16,46,28.90
2018,07,23,16,47,28.90
2018,07,23,16,48,29.00
2018,07,23,16,49,29.00
2018,07,23,16,50,29.10
2018,07,23,16,51,29.10
2018,07,23,16,52,29.20
2018,07,23,16,53,29.30
2018,07,23,16,54,29.30
2018,07,23,16,55,29.40
2018,07,23,16,56,29.40
2018,07,23,16,57,29.40
2018,07,23,16,58,29.50
2018,07,23,16,59,29.50
2018,07,23,17,00,29.50
2018,07,23,17,01,29.50
2018,07,23,17,02,29.50
2018,07,23,17,03,29.60
2018,07,23,17,04,29.60
2018,07,23,17,05,29.70
2018,07,23,17,06,29.80
2018,07,23,17,07,29.80
2018,07,23,17,08,29.80
2018,07,23,17,09,29.80
2018,07,23,17,10,29.80
2018,07,23,17,11,29.80
2018,07,23,17,12,29.80
2018,07,23,17,13,29.70
2018,07,23,17,14,29.70
2018,07,23,17,15,29.70
2018,07,23,17,16,29.60
2018,07,23,17,17,29.60
2018,07,23,17,18,29.50
2018,07,23,17,19,29.50